Regional Weather Roundup
Issued by NWS

Home | Current Version | Previous Version | Text Only | Print | Product List | Glossary Off
Versions: 1 2 3 4 5 6 7 8 9 10 11 12 13 14 15 16 17 18 19 20 21 22 23 24 25 26 27 28 29 30 31 32 33 34 35 36 37 38 39 40 41 42 43 44 45 46 47 48 49 50

000
ASUS43 KTOP 200108
RWRKS

WEATHER ROUNDUP FOR KANSAS
NATIONAL WEATHER SERVICE GOODLAND KS
800 PM CDT SAT MAY 19 2018

NOTE:  "FAIR" INDICATES FEW OR NO CLOUDS BELOW 12,000 FEET WITH NO
SIGNIFICANT WEATHER AND/OR OBSTRUCTIONS TO VISIBILITY.

KSZ001>006-013>018-027>032-041>047-200200-
NORTHWEST KANSAS

CITY           SKY/WX    TMP DP  RH WIND       PRES   REMARKS
GOODLAND       LGT RAIN  48  47  96 N20G33    30.10R
HAYS           CLOUDY    70  52  52 W14       29.94R
HILL CITY      CLOUDY    53  53 100 N14       30.02R FOG
RUSSELL        CLEAR     68  64  87 NE13      29.92R
$$

KSZ061>065-074>080-084>089-200200-
SOUTHWEST KANSAS

CITY           SKY/WX    TMP DP  RH WIND       PRES   REMARKS
DODGE CITY     CLEAR     67  50  54 NW23G32   29.98R
ELKHART        MOCLDY    70  52  52 N16G26    30.03R
GARDEN CITY    MOCLDY    61  47  59 N18G29    30.04R
GREAT BEND     CLEAR     72  58  61 NW6       29.94R
LIBERAL        CLOUDY    71  52  50 N18G26    29.99R
PRATT          PTCLDY    76  54  46 CALM      29.94R
$$

KSZ066>073-081>083-090>101-200200-
SOUTHEAST KANSAS

CITY           SKY/WX    TMP DP  RH WIND       PRES   REMARKS
CHANUTE        CLOUDY    74  66  76 VRB5      29.87S
COFFEYVILLE    CLOUDY    71  67  87 SE10      29.84F
HUTCHINSON     CLEAR     78  60  53 CALM      29.90R
MEDICINE LODGE   N/A     78  60  53 NE5         N/A
NEWTON         PTCLDY    75  62  64 N9        29.91R
PARSONS        CLOUDY    71  65  81 CALM      29.87F
WICHITA INTL   PTCLDY    80  69  69 CALM      29.89R
WICHITA JABRA  CLEAR     76  69  79 S6        29.89R
WICHITA MCCONL CLEAR     77  67  71 S6        29.90R
WINFIELD       PTCLDY    71  68  90 W5        29.90R
$$

KSZ007>012-019>026-033>040-048>060-102>105-200200-
NORTHEAST KANSAS

CITY           SKY/WX    TMP DP  RH WIND       PRES   REMARKS
CONCORDIA      PTCLDY    62  56  80 N15G21    29.94R
EMPORIA        PTCLDY    72  67  84 NE6       29.87F
LAWRENCE       CLOUDY    74  70  87 CALM      29.88R
MANHATTAN      CLOUDY    78  63  59 NE6       29.88R
MARYSVILLE     LGT RAIN  64  57  77 N12G18    29.94R
OLATHE IND     CLOUDY    73  66  78 NW3       29.89R
OLATHE EXE     CLOUDY    71  65  81 CALM      29.89R
SALINA         PTCLDY    78  62  57 NW6       29.89S
TOPEKA BILLARD CLOUDY    76  67  73 SE3       29.87S
TOPEKA FORBES  CLOUDY    74  70  87 CALM      29.87F
$$




USA.gov is the U.S. government's official web portal to all federal, state and local government web resources and services.